Regional Weather Roundup
Issued by NWS Newport/Morehead, NC

Current Version | Previous Version | Text Only | Print | Product List | Glossary Off
Versions: 1 2 3 4 5 6 7 8 9 10 11 12 13 14 15 16 17 18 19 20 21 22 23 24 25 26 27 28 29 30 31 32 33 34 35 36 37 38 39 40 41 42 43 44 45 46 47 48 49 50
000 ASUS42 KMHX 281913 RWRMHX WEATHER ROUNDUP FOR EASTERN NORTH CAROLINA NATIONAL WEATHER SERVICE NEWPORT/MOREHEAD CITY NC 300 PM EDT TUE JUL 28 2015 NOTE: "FAIR" INDICATES FEW OR NO CLOUDS BELOW 12,000 FEET WITH NO SIGNIFICANT WEATHER AND/OR OBSTRUCTIONS TO VISIBILITY NCZ015>017-031-032-045>047-102-103-282000- NORTH COAST CITY SKY/WX TMP DP RH WIND PRES REMARKS EDENTON N/A 87 70 57 S5 30.00F ELIZABETH CITY SUNNY 87 69 54 SE8 30.00F KITTY HAWK PTCLDY 89 70 51 SE6 30.00S MANTEO SUNNY 83 71 65 S10 30.01F $$ NCZ045>047-081-094-103-104-282000- CENTRAL COAST CITY SKY/WX TMP DP RH WIND PRES REMARKS FRISCO SUNNY 88 70 55 SE7 30.01F SWANQUARTER N/A 88 N/A N/A S7 29.97S $$ NCZ095-097-098-100-101-282000- SOUTHERN COAST CITY SKY/WX TMP DP RH WIND PRES REMARKS BEAUFORT SUNNY 85 72 65 SE9 30.00F CEDAR ISLAND N/A 84 N/A N/A E5G13 30.06S JACKSONVILLE SUNNY 87 69 54 SE10 29.98F PINEY ISLAND CLEAR N/A N/A N/A E12 30.00F WILMINGTON MOSUNNY 86 70 58 E9G16 29.99F $$ NCZ011>013-027>030-043-044-078>080-089-090>093-098-282000- COASTAL PLAIN CITY SKY/WX TMP DP RH WIND PRES REMARKS AHOSKIE MOSUNNY 84 71 64 S7 29.99F CLINTON SUNNY 90 70 51 E3 29.99F ELIZABETHTOWN MOSUNNY 90 68 48 SE3 29.98F GOLDSBORO MOSUNNY 89 71 54 SE5 29.97F GREENVILLE SUNNY 90 70 51 S8 30.00F HAVELOCK MOSUNNY 88 70 55 E9 30.00F KENANSVILLE MOSUNNY 87 68 51 SE3 30.00F KINSTON MOSUNNY 90 66 45 SE5 30.00F NEW BERN SUNNY 89 66 46 SE12 30.00F RICHLANDS MOSUNNY 90 66 45 SE8 29.99F ROCKY MOUNT MOSUNNY 90 71 53 VRB7 29.99F WASHINGTON SUNNY 87 69 54 E6 30.00F WHITEVILLE SUNNY 89 68 49 E5 29.98F $$ AMZ130-135-150-152-154-156-158-170-250-252-270-ANZ085-086-088-633-658-670-282000- MARINE OBSERVATIONS STATION/POSITION TIME TEMP WIND PRES WAVE SWELL AIR SEA DIR/SP/G HT/PER HT/PER (UTC) (F) (DEG/KT/KT) (MB) (FT/S) (FT/S) CHESAPEAKE LIGHT 1900 80 180/ 13/ 13 1016.5 64 E VA BEACH 1850 80 82 210/ 4/ 6 1016.0 2/11 2/11 DUCK 1800 82 77 130/ 8/ 8 1015.5 2 E DUCK 1811 81 N/A 2/11 2/11 OREGON INLET 1800 82 83 80/ 6/ 9 1016.5 13E OREGON INLT 1900 82 N/A 2/11 HATTERAS CG 1800 83 82 100/ 5/ 8 1016.2 DIAMOND BUOY NOT AVBL CAPE LOOKOUT 1900 81 90/ 10/ 11 1015.5 BEAUFORT LAB 1800 82 81 130/ 7/ 14 1015.5 30 SE NEW RVR IN NOT AVBL 27 SE WRIGHTSVLE 1800 79 82 100/ 12/ 14 N/A 5 SE WRIGHTSVLE NOT AVBL 225 S CAPE HAT 1850 81 82 230/ 23/ 27 1014.6 7/ 7 2/10 41 SE CHARLESTON 1850 84 85 60/ 12/ 14 1013.9 3/ 7 2/ 7 $$

USA.gov is the U.S. government's official web portal to all federal, state and local government web resources and services.